Weather History for Maple Lake, MN

Change the Weather History Date:

Thursday, October 6, 2011

  Actual Average (KSTC) Record (KSTC)
Temperature  
Mean Temperature 66 °F 50 °F  
Max Temperature 80 °F 62 °F 85 °F (2007)
Min Temperature 53 °F 38 °F 18 °F (1976)
Degree Days  
Heating Degree Days 0 15  
Month to date heating degree days 86  
Since 1 July heating degree days 372  
Cooling Degree Days 2 0  
Month to date cooling degree days 0  
Year to date cooling degree days 463  
Growing Degree Days 16 (Base 50)    
Moisture  
Dew Point 46 °F    
Average Humidity 48    
Maximum Humidity 73    
Minimum Humidity 25    
Precipitation  
Precipitation 0.00 in 0.09 in 1.83 in (1982)
Month to date precipitation 0.59  
Year to date precipitation 23.63  
Snow  
Snow 0.00 in 0.00 in T in (1952)
Month to date snowfall 0.0  
Since 1 July snowfall T  
Since 1 September snowfall T  
Snow Depth -    
Sea Level Pressure  
Sea Level Pressure 30.03 in    
Wind  
Wind Speed 6 mph (SE)    
Max Wind Speed 18 mph    
Max Gust Speed 25 mph    
Visibility 10 miles    
Events      
T = Trace of Precipitation, MM = Missing Value Source: NWS Daily Summary

Daily Weather History Graph

Daily Weather History Graph

Search for Another Location

Airport:

Trip Planner

Search our weather history database for the weather conditions in past years. The results will help you decide how hot, cold, wet, or windy it might be!

Date:

Astronomy

Oct. 06, 2011 Rise Set
Actual Time 7:20 AM CDT 6:47 PM CDT
Civil Twilight 6:50 AM CDT 7:16 PM CDT
Nautical Twilight 6:16 AM CDT 7:50 PM CDT
Astronomical Twilight 5:41 AM CDT 8:25 PM CDT
Moon 4:13 PM CDT (10/6) 1:55 AM CDT (10/6)
Length of Visible Light 12h 26m
Length of Day
11h 27m
Waxing Gibbous, 75% of the Moon is Illuminated
Oct 6
Waxing Gibbous
Oct 11
Full
Oct 19
Last Quarter
Oct 26
New
Nov 2
First Quarter

Hourly Weather History & Observations

Time (CDT) Temp. Dew Point Humidity Pressure Visibility Wind Dir Wind Speed Gust Speed Precip Events Conditions
12:12 AM 62.8 °F 47.5 °F 57% 30.05 in 10.0 mi SSE 3.5 mph - N/A   Clear
12:32 AM 62.2 °F 47.5 °F 58% 30.05 in 10.0 mi SSE 3.5 mph - N/A   Clear
1:12 AM 60.4 °F 47.3 °F 62% 30.05 in 10.0 mi SSE 3.5 mph - N/A   Clear
1:32 AM 61.7 °F 47.3 °F 59% 30.05 in 10.0 mi SSE 4.6 mph - N/A   Clear
1:52 AM 61.7 °F 46.9 °F 58% 30.05 in 10.0 mi SSE 4.6 mph - N/A   Clear
2:12 AM 61.7 °F 46.8 °F 58% 30.05 in 10.0 mi SSE 3.5 mph - N/A   Clear
2:32 AM 60.6 °F 47.3 °F 61% 30.05 in 10.0 mi SSE 3.5 mph - N/A   Clear
2:52 AM 59.2 °F 47.1 °F 64% 30.05 in 10.0 mi SSE 3.5 mph - N/A   Clear
3:12 AM 58.5 °F 46.9 °F 66% 30.05 in 10.0 mi SE 3.5 mph - N/A   Clear
3:31 AM 58.1 °F 46.8 °F 66% 30.06 in 10.0 mi SSE 3.5 mph - N/A   Clear
4:12 AM 56.7 °F 46.2 °F 68% 30.06 in 10.0 mi SSE 3.5 mph - N/A   Clear
4:32 AM 56.3 °F 46.4 °F 69% 30.06 in 10.0 mi SE 3.5 mph - N/A   Clear
4:52 AM 55.9 °F 45.9 °F 69% 30.06 in 10.0 mi SE 3.5 mph - N/A   Clear
5:12 AM 55.6 °F 45.5 °F 69% 30.06 in 10.0 mi SSE 4.6 mph - N/A   Clear
5:32 AM 55.6 °F 45.7 °F 69% 30.06 in 10.0 mi SSE 4.6 mph - N/A   Clear
5:52 AM 55.0 °F 45.5 °F 70% 30.06 in 10.0 mi SSE 3.5 mph - N/A   Clear
6:12 AM 54.7 °F 45.5 °F 71% 30.06 in 10.0 mi SSE 4.6 mph - N/A   Clear
6:32 AM 54.5 °F 45.3 °F 71% 30.06 in 10.0 mi SSE 3.5 mph - N/A   Clear
6:52 AM 54.5 °F 45.5 °F 72% 30.06 in 10.0 mi SSE 3.5 mph - N/A   Clear
7:12 AM 53.8 °F 45.3 °F 73% 30.06 in 10.0 mi SE 4.6 mph - N/A   Clear
7:52 AM 54.1 °F 45.5 °F 73% 30.07 in 10.0 mi SE 4.6 mph - N/A   Clear
8:12 AM 56.5 °F 45.5 °F 67% 30.08 in 10.0 mi SE 4.6 mph - N/A   Clear
8:32 AM 58.3 °F 45.9 °F 63% 30.08 in 10.0 mi SSE 5.8 mph - N/A   Clear
8:52 AM 59.9 °F 46.2 °F 61% 30.08 in 10.0 mi SSE 5.8 mph - N/A   Clear
9:12 AM 61.2 °F 46.6 °F 59% 30.08 in 10.0 mi SSE 6.9 mph - N/A   Clear
9:32 AM 62.6 °F 46.8 °F 56% 30.08 in 10.0 mi SSE 8.1 mph - N/A   Clear
9:52 AM 64.4 °F 46.9 °F 53% 30.08 in 10.0 mi SSE 6.9 mph - N/A   Clear
10:12 AM 66.0 °F 47.1 °F 50% 30.07 in 10.0 mi SSE 5.8 mph - N/A   Clear
10:32 AM 67.5 °F 47.5 °F 49% 30.07 in 10.0 mi SE 6.9 mph - N/A   Clear
10:52 AM 69.3 °F 47.3 °F 45% 30.07 in 10.0 mi SE 5.8 mph - N/A   Clear
11:12 AM 71.1 °F 46.6 °F 42% 30.06 in 10.0 mi SE 8.1 mph - N/A   Clear
11:32 AM 71.6 °F 46.2 °F 40% 30.06 in 10.0 mi SSE 9.2 mph - N/A   Clear
11:52 AM 72.9 °F 46.2 °F 39% 30.06 in 10.0 mi SSE 8.1 mph 16.1 mph N/A   Clear
12:12 PM 73.8 °F 46.0 °F 37% 30.05 in 10.0 mi SSE 10.4 mph 18.4 mph N/A   Clear
12:31 PM 74.7 °F 46.0 °F 36% 30.05 in 10.0 mi SSE 12.7 mph 19.6 mph N/A   Clear
12:52 PM 75.7 °F 46.2 °F 35% 30.05 in 10.0 mi SSE 11.5 mph 19.6 mph N/A   Clear
1:12 PM 76.3 °F 46.0 °F 34% 30.04 in 10.0 mi SSE 13.8 mph 21.9 mph N/A   Clear
1:32 PM 77.7 °F 46.4 °F 33% 30.03 in 10.0 mi SSE 13.8 mph 20.7 mph N/A   Clear
1:52 PM 78.1 °F 45.5 °F 32% 30.02 in 10.0 mi SSE 12.7 mph 18.4 mph N/A   Clear
2:12 PM 78.8 °F 45.1 °F 30% 30.01 in 10.0 mi SSE 8.1 mph 19.6 mph N/A   Clear
2:32 PM 79.0 °F 45.0 °F 30% 30.01 in 10.0 mi SE 13.8 mph 23.0 mph N/A   Clear
3:12 PM 79.7 °F 43.7 °F 28% 30.00 in 10.0 mi SSE 15.0 mph 23.0 mph N/A   Clear
3:32 PM 79.5 °F 43.0 °F 27% 30.00 in 10.0 mi SSE 11.5 mph 21.9 mph N/A   Clear
3:52 PM 79.7 °F 41.9 °F 26% 29.99 in 10.0 mi SSE 13.8 mph 23.0 mph N/A   Clear
4:12 PM 77.5 °F 41.5 °F 28% 29.98 in 10.0 mi SE 10.4 mph 25.3 mph N/A   Clear
4:32 PM 80.2 °F 41.5 °F 25% 29.98 in 10.0 mi SSE 18.4 mph 24.2 mph N/A   Clear
4:52 PM 79.0 °F 41.4 °F 26% 29.98 in 10.0 mi SE 10.4 mph 19.6 mph N/A   Clear
5:12 PM 76.3 °F 41.2 °F 28% 29.98 in 10.0 mi SSE 10.4 mph 17.3 mph N/A   Clear
5:32 PM 74.8 °F 42.8 °F 32% 29.97 in 10.0 mi SE 8.1 mph 17.3 mph N/A   Clear
5:52 PM 74.8 °F 44.1 °F 33% 29.97 in 10.0 mi SE 8.1 mph - N/A   Clear
6:12 PM 74.3 °F 44.4 °F 34% 29.97 in 10.0 mi SE 6.9 mph - N/A   Clear
6:32 PM 73.9 °F 44.4 °F 35% 29.97 in 10.0 mi SE 6.9 mph - N/A   Clear
6:52 PM 72.9 °F 44.8 °F 37% 29.97 in 10.0 mi SE 5.8 mph - N/A   Clear
7:12 PM 72.0 °F 45.9 °F 39% 29.97 in 10.0 mi SE 6.9 mph - N/A   Clear
7:32 PM 71.8 °F 45.7 °F 39% 29.97 in 10.0 mi SE 9.2 mph - N/A   Clear
7:52 PM 72.7 °F 44.6 °F 37% 29.97 in 10.0 mi SE 10.4 mph 20.7 mph N/A   Clear
8:32 PM 71.6 °F 45.3 °F 39% 29.97 in 10.0 mi SE 9.2 mph 16.1 mph N/A   Mostly Cloudy
8:52 PM 71.6 °F 45.7 °F 39% 29.97 in 10.0 mi SE 10.4 mph 17.3 mph N/A   Scattered Clouds
9:11 PM 70.2 °F 46.9 °F 43% 29.98 in 10.0 mi SE 10.4 mph 16.1 mph N/A   Clear
9:32 PM 70.2 °F 47.5 °F 44% 29.98 in 10.0 mi SE 11.5 mph 19.6 mph N/A   Clear
9:52 PM 70.5 °F 48.4 °F 45% 29.97 in 10.0 mi SE 10.4 mph 17.3 mph N/A   Clear
10:12 PM 69.8 °F 48.7 °F 47% 29.97 in 10.0 mi SE 10.4 mph 18.4 mph N/A   Clear
10:32 PM 69.8 °F 48.9 °F 47% 29.97 in 10.0 mi SE 9.2 mph 19.6 mph N/A   Clear
10:52 PM 68.9 °F 49.5 °F 50% 29.97 in 10.0 mi SE 10.4 mph 17.3 mph N/A   Clear
11:12 PM 68.0 °F 49.5 °F 51% 29.97 in 10.0 mi SE 8.1 mph - N/A   Clear
11:32 PM 68.0 °F 49.5 °F 51% 29.97 in 10.0 mi SE 10.4 mph 17.3 mph N/A   Clear
11:53 PM 68.2 °F 49.5 °F 51% 29.97 in 10.0 mi SE 8.1 mph 18.4 mph N/A   Clear